White Plains, CT

5:40 PM EST on November 15, 2019 (GMT -0500)
Westchester County

Weather History for KHPN - September, 2019

Change the Weather History Date:

Tuesday, September 3, 2019

  Actual Average Record
Temperature  
Mean Temperature 70 °F -  
Max Temperature 78 °F 75 °F 93 °F (1993)
Min Temperature 62 °F 59 °F 50 °F (1976)
Cooling Degree Days 5    
Growing Degree Days 20 (Base 50)    
Moisture  
Dew Point 60 °F    
Average Humidity 74    
Maximum Humidity 97    
Minimum Humidity 50    
Precipitation  
Precipitation 0.00 in - - ()
Sea Level Pressure  
Sea Level Pressure 30.02 in    
Wind  
Wind Speed 6 mph ()    
Max Wind Speed 12 mph    
Max Gust Speed -    
Visibility 9.5 miles    
Events      
Averages and records for this station are not official NWS values.
T = Trace of Precipitation, MM = Missing Value Source: Averaged Metar Reports

Daily Weather History Graph

Daily Weather History Graph

Search for Another Location

Airport or City:

Astronomy

Sep. 03, 2019 Rise Set
Actual Time 6:23 AM EDT 7:24 PM EDT
Civil Twilight 5:55 AM EDT 7:52 PM EDT
Nautical Twilight 5:21 AM EDT 8:26 PM EDT
Astronomical Twilight 4:46 AM EDT 9:00 PM EDT
Moon 11:15 AM EDT (9/3) 10:17 PM EDT (9/3)
Length of Visible Light 13h 57m
Length of Day
13h 01m
Waxing Crescent, 24% of the Moon is Illuminated
Sep 3
Waxing Crescent
Sep 5
First Quarter
Sep 14
Full
Sep 21
Last Quarter
Sep 28
New

Hourly Weather History & Observations

Time (EDT) Temp. Dew Point Humidity Pressure Visibility Wind Dir Wind Speed Gust Speed Precip Events Conditions
12:56 AM 68.0 °F 66.9 °F 96% 29.98 in 5.0 mi NW 6.9 mph - N/A   Scattered Clouds
1:56 AM 68.0 °F 66.0 °F 93% 29.97 in 6.0 mi NW 8.1 mph - N/A   Clear
2:56 AM 66.9 °F 66.0 °F 97% 29.99 in 8.0 mi NW 6.9 mph - N/A   Scattered Clouds
3:56 AM 66.0 °F 64.0 °F 93% 29.96 in 10.0 mi North 6.9 mph - N/A   Clear
4:56 AM 64.0 °F 61.0 °F 90% 29.98 in 10.0 mi NNW 8.1 mph - N/A   Clear
5:56 AM 62.1 °F 59.0 °F 90% 29.99 in 10.0 mi NW 9.2 mph - N/A   Clear
6:56 AM 62.1 °F 59.0 °F 90% 30.02 in 10.0 mi NW 8.1 mph - N/A   Clear
7:56 AM 66.0 °F 60.1 °F 81% 30.04 in 10.0 mi North 8.1 mph - N/A   Clear
8:56 AM 68.0 °F 59.0 °F 73% 30.06 in 10.0 mi NE 6.9 mph - N/A   Clear
9:56 AM 72.0 °F 59.0 °F 64% 30.06 in 10.0 mi Variable 6.9 mph - N/A   Clear
10:56 AM 73.9 °F 59.0 °F 59% 30.06 in 10.0 mi NE 8.1 mph - N/A   Clear
11:56 AM 75.9 °F 57.9 °F 54% 30.04 in 10.0 mi NNE 6.9 mph - N/A   Partly Cloudy
12:56 PM 75.9 °F 61.0 °F 60% 30.04 in 10.0 mi SE 9.2 mph - N/A   Scattered Clouds
1:56 PM 77.0 °F 60.1 °F 56% 30.02 in 10.0 mi Variable 3.5 mph - N/A   Partly Cloudy
2:56 PM 78.1 °F 57.9 °F 50% 30.02 in 10.0 mi SW 3.5 mph - N/A   Scattered Clouds
3:56 PM 78.1 °F 59.0 °F 52% 30.02 in 10.0 mi SE 5.8 mph - N/A   Scattered Clouds
4:56 PM 77.0 °F 57.0 °F 50% 30.01 in 10.0 mi SE 11.5 mph - N/A   Partly Cloudy
5:56 PM 75.9 °F 57.0 °F 52% 30.01 in 10.0 mi SE 6.9 mph - N/A   Clear
6:56 PM 72.0 °F 60.1 °F 66% 30.01 in 10.0 mi Calm Calm - N/A   Clear
7:56 PM 68.0 °F 60.1 °F 76% 30.02 in 10.0 mi SSE 4.6 mph - N/A   Clear
8:56 PM 66.0 °F 61.0 °F 84% 30.03 in 10.0 mi SE 3.5 mph - N/A   Clear
9:56 PM 64.0 °F 59.0 °F 84% 30.03 in 10.0 mi SE 4.6 mph - N/A   Clear
10:56 PM 64.0 °F 60.1 °F 87% 30.03 in 10.0 mi Calm Calm - N/A   Clear
11:56 PM 64.0 °F 61.0 °F 90% 30.02 in 10.0 mi Calm Calm - N/A   Clear